EZY58B EGKK-EHAM

Flight info

Callsign EZY58B
Flight time 0h 44m
Altitude 27000
Route FRANE M604 GASBA M197 REDFA
Aircraft A20N/M-SDE2E3FGHIRWXY/LB1

Departure

Time 2026-05-07 09:11
Airport London Gatwick Airport (EGKK)

Arrival

Time 2026-05-07 09:55
Airport Amsterdam Airport Schiphol (EHAM)
Time Latitude Longitude Altitude Speed Heading
2026-05-07 09:03 51.15467 -0.17716 211 ft 1 kts 166°
2026-05-07 09:03 51.15478 -0.17720 207 ft 2 kts 166°
2026-05-07 09:04 51.15493 -0.17728 212 ft 2 kts 145°
2026-05-07 09:04 51.15504 -0.17743 208 ft 2 kts 114°
2026-05-07 09:04 51.15507 -0.17763 210 ft 0 kts 81°
2026-05-07 09:06 51.15507 -0.17761 210 ft 0 kts 81°
2026-05-07 09:07 51.15508 -0.17755 212 ft 0 kts 82°
2026-05-07 09:07 51.15510 -0.17724 213 ft 9 kts 80°
2026-05-07 09:07 51.15533 -0.17567 211 ft 17 kts 77°
2026-05-07 09:07 51.15504 -0.17427 204 ft 13 kts 154°
2026-05-07 09:08 51.15408 -0.17385 209 ft 15 kts 166°
2026-05-07 09:08 51.15314 -0.17370 204 ft 13 kts 174°
2026-05-07 09:08 51.15248 -0.17286 208 ft 13 kts 106°
2026-05-07 09:08 51.15269 -0.17138 207 ft 14 kts 68°
2026-05-07 09:09 51.15285 -0.16966 205 ft 17 kts 79°
2026-05-07 09:09 51.15310 -0.16783 209 ft 15 kts 79°
2026-05-07 09:09 51.15277 -0.16666 209 ft 12 kts 159°
2026-05-07 09:09 51.15259 -0.16657 205 ft 0 kts 164°
2026-05-07 09:10 51.15229 -0.16644 213 ft 17 kts 165°
2026-05-07 09:10 51.15124 -0.16773 205 ft 35 kts 262°
2026-05-07 09:10 51.15013 -0.17527 214 ft 102 kts 257°
2026-05-07 09:11 51.14823 -0.18913 210 ft 152 kts 258°
2026-05-07 09:11 51.14590 -0.20700 513 ft 170 kts 258°
2026-05-07 09:11 51.14346 -0.22591 1090 ft 179 kts 258°
2026-05-07 09:11 51.14095 -0.24573 1668 ft 188 kts 258°
2026-05-07 09:12 51.13840 -0.26648 2371 ft 190 kts 258°
2026-05-07 09:12 51.13592 -0.28692 3151 ft 187 kts 258°
2026-05-07 09:12 51.13381 -0.30728 3903 ft 188 kts 274°
2026-05-07 09:12 51.13969 -0.32595 4800 ft 199 kts 318°
2026-05-07 09:13 51.15211 -0.33550 5927 ft 202 kts 351°
2026-05-07 09:13 51.16746 -0.33713 6133 ft 256 kts 358°
2026-05-07 09:13 51.18769 -0.33432 5547 ft 326 kts 14°
2026-05-07 09:13 51.20940 -0.31587 4700 ft 371 kts 32°
2026-05-07 09:14 51.23257 -0.30075 4677 ft 347 kts 10°
2026-05-07 09:14 51.25508 -0.29381 4978 ft 316 kts 17°
2026-05-07 09:14 51.27382 -0.27797 4994 ft 297 kts 39°
2026-05-07 09:14 51.28736 -0.25501 5001 ft 279 kts 51°
2026-05-07 09:15 51.29936 -0.23166 4996 ft 270 kts 51°
2026-05-07 09:15 51.31143 -0.20834 4992 ft 272 kts 51°
2026-05-07 09:15 51.32345 -0.18517 5004 ft 271 kts 51°
2026-05-07 09:15 51.33551 -0.16194 4995 ft 272 kts 51°
2026-05-07 09:16 51.34767 -0.13850 5162 ft 275 kts 51°
2026-05-07 09:16 51.35993 -0.11483 5924 ft 276 kts 51°
2026-05-07 09:16 51.37214 -0.09122 7048 ft 277 kts 51°
2026-05-07 09:16 51.38451 -0.06729 8024 ft 281 kts 51°
2026-05-07 09:17 51.39701 -0.04305 9060 ft 284 kts 51°
2026-05-07 09:17 51.40960 -0.01862 10113 ft 286 kts 50°
2026-05-07 09:17 51.42251 0.00644 10805 ft 302 kts 50°
2026-05-07 09:17 51.43641 0.03342 11150 ft 326 kts 50°
2026-05-07 09:18 51.45123 0.06222 11667 ft 341 kts 50°
2026-05-07 09:18 51.46642 0.09177 12527 ft 345 kts 50°
2026-05-07 09:18 51.48177 0.12168 13377 ft 350 kts 50°
2026-05-07 09:18 51.49739 0.15218 14166 ft 356 kts 50°
2026-05-07 09:19 51.51315 0.18299 14928 ft 360 kts 50°
2026-05-07 09:19 51.52915 0.21427 15679 ft 364 kts 50°
2026-05-07 09:19 51.54530 0.24592 16412 ft 369 kts 50°
2026-05-07 09:19 51.56169 0.27806 17139 ft 373 kts 50°
2026-05-07 09:20 51.57823 0.31053 17871 ft 378 kts 50°
2026-05-07 09:20 51.59476 0.34304 18542 ft 382 kts 50°
2026-05-07 09:20 51.61183 0.37666 19180 ft 386 kts 50°
2026-05-07 09:20 51.62888 0.41027 19846 ft 388 kts 51°
2026-05-07 09:21 51.64603 0.44413 20487 ft 392 kts 51°
2026-05-07 09:21 51.66332 0.47830 21112 ft 395 kts 51°
2026-05-07 09:21 51.68055 0.51240 21740 ft 399 kts 51°
2026-05-07 09:21 51.69834 0.54765 22372 ft 402 kts 51°
2026-05-07 09:22 51.71568 0.58207 22992 ft 405 kts 51°
2026-05-07 09:22 51.73376 0.61800 23633 ft 408 kts 51°
2026-05-07 09:22 51.75144 0.65318 24158 ft 411 kts 51°
2026-05-07 09:22 51.76944 0.68905 24714 ft 412 kts 51°
2026-05-07 09:23 51.78753 0.72516 25238 ft 414 kts 51°
2026-05-07 09:23 51.80567 0.76142 25754 ft 416 kts 51°
2026-05-07 09:23 51.82439 0.79719 26254 ft 418 kts 46°
2026-05-07 09:23 51.84523 0.83011 26753 ft 420 kts 47°
2026-05-07 09:24 51.86259 0.86812 27022 ft 421 kts 61°
2026-05-07 09:24 51.87380 0.91173 27073 ft 421 kts 75°
2026-05-07 09:24 51.87828 0.95851 27086 ft 421 kts 86°
2026-05-07 09:24 51.87998 1.00580 27083 ft 422 kts 85°
2026-05-07 09:25 51.88340 1.05295 27080 ft 422 kts 81°
2026-05-07 09:25 51.88906 1.09952 27075 ft 421 kts 77°
2026-05-07 09:25 51.89623 1.14549 27075 ft 421 kts 75°
2026-05-07 09:25 51.90415 1.19119 27077 ft 422 kts 74°
2026-05-07 09:26 51.91235 1.23676 27075 ft 422 kts 73°
2026-05-07 09:26 51.92060 1.28231 27083 ft 421 kts 73°
2026-05-07 09:26 51.92884 1.32798 27085 ft 421 kts 73°
2026-05-07 09:26 51.93700 1.37356 27082 ft 422 kts 73°
2026-05-07 09:27 51.94512 1.41915 27086 ft 421 kts 73°
2026-05-07 09:27 51.95322 1.46475 27093 ft 421 kts 74°
2026-05-07 09:27 51.96934 1.55605 27095 ft 421 kts 74°
2026-05-07 09:28 51.97739 1.60178 27092 ft 421 kts 74°
2026-05-07 09:28 51.98270 1.63206 27093 ft 421 kts 74°
2026-05-07 09:28 51.99071 1.67777 27093 ft 421 kts 74°
2026-05-07 09:28 51.99845 1.72368 27085 ft 421 kts 75°
2026-05-07 09:29 52.00788 1.78473 27094 ft 421 kts 76°
2026-05-07 09:29 52.01261 1.81593 27094 ft 422 kts 76°
2026-05-07 09:29 52.02193 1.87714 27087 ft 422 kts 76°
2026-05-07 09:29 52.02671 1.90838 27094 ft 422 kts 76°
2026-05-07 09:30 52.03383 1.95469 26976 ft 423 kts 76°
2026-05-07 09:30 52.04093 2.00090 26709 ft 421 kts 76°
2026-05-07 09:30 52.04790 2.04634 26463 ft 419 kts 76°
2026-05-07 09:30 52.05492 2.09224 26214 ft 419 kts 76°
2026-05-07 09:31 52.06192 2.13810 25952 ft 418 kts 76°
2026-05-07 09:31 52.06888 2.18387 25701 ft 417 kts 76°
2026-05-07 09:31 52.07605 2.22940 25456 ft 415 kts 72°
2026-05-07 09:31 52.08693 2.27271 25207 ft 414 kts 66°
2026-05-07 09:32 52.09847 2.31566 24962 ft 414 kts 66°
2026-05-07 09:32 52.10997 2.35848 24720 ft 413 kts 66°
2026-05-07 09:32 52.12145 2.40132 24476 ft 412 kts 66°
2026-05-07 09:32 52.13284 2.44394 24237 ft 411 kts 66°
2026-05-07 09:33 52.14421 2.48662 24003 ft 410 kts 66°
2026-05-07 09:33 52.15553 2.52920 23772 ft 409 kts 66°
2026-05-07 09:33 52.16683 2.57176 23506 ft 408 kts 66°
2026-05-07 09:33 52.17804 2.61410 23218 ft 407 kts 66°
2026-05-07 09:34 52.18920 2.65633 22954 ft 405 kts 66°
2026-05-07 09:34 52.20029 2.69837 22679 ft 403 kts 66°
2026-05-07 09:34 52.21134 2.74032 22404 ft 402 kts 66°
2026-05-07 09:34 52.22234 2.78217 22137 ft 400 kts 66°
2026-05-07 09:35 52.23325 2.82375 21872 ft 398 kts 66°
2026-05-07 09:35 52.24412 2.86527 21605 ft 397 kts 66°
2026-05-07 09:35 52.25494 2.90666 21340 ft 396 kts 66°
2026-05-07 09:35 52.26573 2.94798 21079 ft 395 kts 66°
2026-05-07 09:36 52.27644 2.98912 20820 ft 393 kts 66°
2026-05-07 09:36 52.28714 3.03027 20570 ft 392 kts 66°
2026-05-07 09:36 52.29777 3.07121 20315 ft 391 kts 66°
2026-05-07 09:36 52.30834 3.11200 20064 ft 390 kts 67°
2026-05-07 09:37 52.31889 3.15284 19808 ft 389 kts 67°
2026-05-07 09:37 52.32939 3.19349 19559 ft 387 kts 67°
2026-05-07 09:37 52.33983 3.23400 19314 ft 387 kts 67°
2026-05-07 09:37 52.35012 3.27401 19071 ft 386 kts 67°
2026-05-07 09:38 52.36048 3.31435 18832 ft 385 kts 67°
2026-05-07 09:38 52.37080 3.35463 18581 ft 383 kts 67°
2026-05-07 09:38 52.38112 3.39497 18032 ft 385 kts 67°
2026-05-07 09:38 52.39140 3.43525 17456 ft 381 kts 67°
2026-05-07 09:39 52.40157 3.47513 16924 ft 377 kts 67°
2026-05-07 09:39 52.41158 3.51449 16382 ft 372 kts 67°
2026-05-07 09:39 52.42148 3.55343 15844 ft 368 kts 67°
2026-05-07 09:39 52.43124 3.59194 15314 ft 364 kts 67°
2026-05-07 09:40 52.44091 3.63015 14792 ft 361 kts 67°
2026-05-07 09:40 52.45047 3.66800 14252 ft 358 kts 66°
2026-05-07 09:40 52.45995 3.70558 13728 ft 355 kts 66°
2026-05-07 09:40 52.46930 3.74269 13344 ft 347 kts 66°
2026-05-07 09:41 52.47829 3.77846 13196 ft 332 kts 67°
2026-05-07 09:41 52.48692 3.81284 13056 ft 319 kts 67°
2026-05-07 09:41 52.49520 3.84587 12838 ft 309 kts 67°
2026-05-07 09:41 52.50330 3.87823 12509 ft 304 kts 67°
2026-05-07 09:42 52.51122 3.90992 12239 ft 297 kts 67°
2026-05-07 09:42 52.51889 3.94129 11868 ft 295 kts 72°
2026-05-07 09:42 52.52112 3.97438 11572 ft 296 kts 97°
2026-05-07 09:42 52.51491 4.00907 11333 ft 336 kts 110°
2026-05-07 09:43 52.50619 4.04522 11098 ft 341 kts 112°
2026-05-07 09:43 52.49731 4.08070 10995 ft 331 kts 112°
2026-05-07 09:43 52.48874 4.11500 10873 ft 318 kts 112°
2026-05-07 09:43 52.48052 4.14824 10499 ft 313 kts 112°
2026-05-07 09:44 52.47234 4.18157 9918 ft 316 kts 112°
2026-05-07 09:44 52.46414 4.21510 9241 ft 315 kts 112°
2026-05-07 09:44 52.45613 4.24793 8825 ft 302 kts 112°
2026-05-07 09:44 52.44862 4.27866 8643 ft 283 kts 112°
2026-05-07 09:45 52.44151 4.30775 8465 ft 265 kts 112°
2026-05-07 09:45 52.43486 4.33491 8285 ft 250 kts 112°
2026-05-07 09:45 52.42855 4.36063 7924 ft 243 kts 112°
2026-05-07 09:45 52.42221 4.38644 7754 ft 247 kts 112°
2026-05-07 09:46 52.41579 4.41252 7626 ft 246 kts 112°
2026-05-07 09:46 52.40943 4.43838 7499 ft 245 kts 112°
2026-05-07 09:46 52.40304 4.46429 7382 ft 246 kts 112°
2026-05-07 09:46 52.39667 4.49009 7261 ft 243 kts 112°
2026-05-07 09:47 52.39034 4.51571 7144 ft 243 kts 112°
2026-05-07 09:47 52.38400 4.54133 7007 ft 242 kts 112°
2026-05-07 09:47 52.37713 4.56636 6878 ft 241 kts 124°
2026-05-07 09:47 52.36478 4.58438 6755 ft 240 kts 155°
2026-05-07 09:48 52.34896 4.58935 6622 ft 229 kts 187°
2026-05-07 09:48 52.33466 4.58012 6494 ft 218 kts 221°
2026-05-07 09:48 52.32579 4.56093 6364 ft 209 kts 242°
2026-05-07 09:48 52.31883 4.53985 6238 ft 212 kts 242°
2026-05-07 09:49 52.31190 4.51871 6099 ft 210 kts 242°
2026-05-07 09:49 52.30513 4.49815 5997 ft 200 kts 242°
2026-05-07 09:49 52.29862 4.47843 5820 ft 195 kts 242°
2026-05-07 09:49 52.29216 4.45899 5549 ft 195 kts 240°
2026-05-07 09:50 52.28249 4.44365 5208 ft 197 kts 203°
2026-05-07 09:50 52.26920 4.44110 4942 ft 192 kts 166°
2026-05-07 09:50 52.25691 4.44956 4538 ft 195 kts 152°
2026-05-07 09:50 52.24444 4.45969 3934 ft 207 kts 152°
2026-05-07 09:51 52.23153 4.47011 3503 ft 210 kts 152°
2026-05-07 09:51 52.21864 4.48131 3240 ft 202 kts 142°
2026-05-07 09:51 52.21043 4.49825 3009 ft 190 kts 108°
2026-05-07 09:51 52.20945 4.51875 2880 ft 179 kts 79°
2026-05-07 09:52 52.21333 4.53833 2791 ft 182 kts 64°
2026-05-07 09:52 52.21935 4.55635 2596 ft 180 kts 58°
2026-05-07 09:52 52.22609 4.57356 2392 ft 182 kts 56°
2026-05-07 09:52 52.23281 4.59111 2141 ft 182 kts 57°
2026-05-07 09:53 52.23953 4.60862 1887 ft 183 kts 57°
2026-05-07 09:53 52.24630 4.62615 1623 ft 182 kts 57°
2026-05-07 09:53 52.25295 4.64348 1384 ft 178 kts 56°
2026-05-07 09:53 52.25956 4.66059 1149 ft 185 kts 56°
2026-05-07 09:54 52.26632 4.67815 868 ft 179 kts 57°
2026-05-07 09:54 52.27302 4.69554 635 ft 182 kts 57°
2026-05-07 09:54 52.27967 4.71284 386 ft 176 kts 57°
2026-05-07 09:54 52.28623 4.72971 145 ft 178 kts 57°
2026-05-07 09:55 52.29261 4.74612 0 ft 156 kts 57°
2026-05-07 09:55 52.29733 4.75838 -3 ft 98 kts 59°
2026-05-07 09:55 52.29996 4.76502 -2 ft 45 kts 41°
2026-05-07 09:55 52.30149 4.76642 -1 ft 11 kts 25°
2026-05-07 09:56 52.30217 4.76691 -1 ft 3 kts 24°
2026-05-07 09:56 52.30232 4.76702 -1 ft 2 kts 25°
2026-05-07 09:56 52.30238 4.76707 -1 ft 0 kts 26°
2026-05-07 09:57 52.30269 4.76736 -1 ft 13 kts 35°
2026-05-07 09:57 52.30347 4.76906 -2 ft 22 kts 59°
2026-05-07 09:57 52.30437 4.77139 -2 ft 26 kts 58°
2026-05-07 09:58 52.30538 4.77400 -1 ft 28 kts 58°
2026-05-07 09:58 52.30698 4.77579 -1 ft 30 kts 11°
2026-05-07 09:58 52.30914 4.77608 -1 ft 32 kts
2026-05-07 09:58 52.31145 4.77631 -1 ft 34 kts
2026-05-07 09:59 52.31391 4.77644 -1 ft 36 kts 351°
2026-05-07 09:59 52.31571 4.77386 -1 ft 37 kts 282°
2026-05-07 09:59 52.31563 4.76951 -1 ft 40 kts 268°
2026-05-07 09:59 52.31550 4.76489 -1 ft 42 kts 269°
2026-05-07 10:00 52.31532 4.76006 -1 ft 44 kts 265°
2026-05-07 10:00 52.31513 4.75569 -2 ft 25 kts 267°
2026-05-07 10:00 52.31454 4.75445 -1 ft 16 kts 182°
2026-05-07 10:00 52.31337 4.75453 -2 ft 18 kts 178°
2026-05-07 10:01 52.31206 4.75465 -2 ft 20 kts 177°
2026-05-07 10:01 52.31115 4.75403 -2 ft 9 kts 237°
2026-05-07 10:01 52.31100 4.75390 -2 ft 0 kts 177°
2026-05-07 10:01 52.31079 4.75405 -2 ft 8 kts 149°
2026-05-07 10:02 52.31028 4.75464 -2 ft 0 kts 149°